| time (UTC) | temp F | wind direction | speed MPH | gust MPH | rain 1hr in | rain 24hr in | rain mn in | humidity % | barometer mb |
| 20260506004302 | 56 | 208 | 4.0 | 7.0 | 0.00 | 0.00 | 0.00 | 19 | 1009.5 |
| 20260506003303 | 56 | 18 | 7.0 | 11.0 | 0.00 | 0.00 | 0.00 | 18 | 1009.2 |
| 20260506002305 | 57 | 8 | 0.0 | 11.0 | 0.00 | 0.00 | 0.00 | 19 | 1009.2 |
| 20260506001302 | 57 | 23 | 4.0 | 18.0 | 0.00 | 0.00 | 0.00 | 19 | 1009.1 |
| 20260506000303 | 58 | 352 | 6.0 | 18.0 | 0.00 | 0.00 | 0.00 | 19 | 1009.0 |
| 20260505235305 | 59 | 10 | 3.0 | 10.0 | 0.00 | 0.00 | 0.00 | 19 | 1009.0 |
| 20260505234304 | 59 | 275 | 3.0 | 9.0 | 0.00 | 0.00 | 0.00 | 21 | 1009.1 |
| 20260505233303 | 58 | 196 | 3.0 | 9.0 | 0.00 | 0.00 | 0.00 | 24 | 1009.2 |
| 20260505231203 | 57 | 223 | 2.0 | 9.0 | 0.00 | 0.00 | 0.00 | 27 | 1009.2 |
| 20260505224003 | 54 | 52 | 9.0 | 17.0 | 0.00 | 0.00 | 0.00 | 30 | 1009.9 |
| 20260505223004 | 54 | 34 | 7.0 | 13.0 | 0.00 | 0.00 | 0.00 | 33 | 1010.6 |
| 20260505222002 | 55 | 330 | 4.0 | 14.0 | 0.00 | 0.00 | 0.00 | 31 | 1010.6 |
| 20260505221003 | 57 | 360 | 3.0 | 9.0 | 0.00 | 0.00 | 0.00 | 26 | 1010.2 |
| 20260505220004 | 57 | 45 | 3.0 | 9.0 | 0.00 | 0.00 | 0.00 | 25 | 1010.0 |
| 20260505215002 | 57 | 256 | 5.0 | 12.0 | 0.00 | 0.00 | 0.00 | 25 | 1010.2 |
| 20260505214003 | 58 | 360 | 0.0 | 18.0 | 0.00 | 0.00 | 0.00 | 22 | 1010.0 |
| 20260505213003 | 59 | 162 | 4.0 | 10.0 | 0.00 | 0.00 | 0.00 | 27 | 1009.8 |
| 20260505212004 | 58 | 360 | 3.0 | 9.0 | 0.00 | 0.00 | 0.00 | 26 | 1009.8 |
| 20260505211002 | 57 | 30 | 1.0 | 15.0 | 0.00 | 0.00 | 0.00 | 23 | 1009.8 |
| 20260505210003 | 56 | 116 | 3.0 | 17.0 | 0.00 | 0.00 | 0.00 | 24 | 1009.8 |
| 20260505205004 | 56 | 309 | 1.0 | 6.0 | 0.00 | 0.00 | 0.00 | 26 | 1009.9 |
| 20260505204002 | 56 | 28 | 5.0 | 10.0 | 0.00 | 0.00 | 0.00 | 28 | 1009.9 |
| 20260505203003 | 55 | 64 | 1.0 | 11.0 | 0.00 | 0.00 | 0.00 | 35 | 1010.0 |
| 20260505200903 | 55 | 110 | 7.0 | 13.0 | 0.00 | 0.00 | 0.00 | 33 | 1010.3 |
| 20260505195904 | 54 | 82 | 9.0 | 20.0 | 0.00 | 0.00 | 0.00 | 37 | 1010.2 |
| 20260505194903 | 56 | 49 | 16.0 | 24.0 | 0.00 | 0.00 | 0.00 | 33 | 1010.3 |
| 20260505193903 | 58 | 200 | 1.0 | 5.0 | 0.00 | 0.00 | 0.00 | 26 | 1009.9 |
| 20260505192904 | 58 | 357 | 0.0 | 4.0 | 0.00 | 0.00 | 0.00 | 26 | 1009.9 |
| 20260505191903 | 57 | 352 | 4.0 | 10.0 | 0.00 | 0.00 | 0.00 | 25 | 1010.0 |
| 20260505190903 | 58 | 352 | 1.0 | 6.0 | 0.00 | 0.00 | 0.00 | 24 | 1010.2 |
| 20260505185904 | 58 | 48 | 1.0 | 5.0 | 0.00 | 0.00 | 0.00 | 26 | 1010.2 |
| 20260505184902 | 58 | 344 | 0.0 | 5.0 | 0.00 | 0.00 | 0.00 | 24 | 1010.4 |
| 20260505183903 | 58 | 350 | 1.0 | 5.0 | 0.00 | 0.00 | 0.00 | 26 | 1010.6 |
| 20260505182904 | 57 | 360 | 2.0 | 9.0 | 0.00 | 0.00 | 0.00 | 27 | 1010.7 |
| 20260505181904 | 57 | 35 | 2.0 | 9.0 | 0.00 | 0.00 | 0.00 | 26 | 1010.8 |
| 20260505180902 | 57 | 339 | 4.0 | 11.0 | 0.00 | 0.00 | 0.00 | 27 | 1010.8 |
| 20260505175903 | 57 | 360 | 6.0 | 14.0 | 0.00 | 0.00 | 0.00 | 28 | 1010.8 |
| 20260505174904 | 57 | 20 | 6.0 | 6.0 | 0.00 | 0.00 | 0.00 | 28 | 1011.1 |
| 20260505171704 | 57 | 20 | 5.0 | 11.0 | 0.00 | 0.00 | 0.00 | 28 | 1011.2 |
| 20260505170705 | 57 | 16 | 4.0 | 8.0 | 0.00 | 0.00 | 0.00 | 28 | 1011.0 |
| 20260505165703 | 56 | 305 | 4.0 | 10.0 | 0.00 | 0.00 | 0.00 | 29 | 1011.1 |
| 20260505164704 | 56 | 7 | 4.0 | 7.0 | 0.00 | 0.00 | 0.00 | 28 | 1011.2 |
| 20260505163704 | 56 | 333 | 3.0 | 10.0 | 0.00 | 0.00 | 0.00 | 29 | 1011.4 |
| 20260505162703 | 55 | 359 | 4.0 | 12.0 | 0.00 | 0.00 | 0.00 | 31 | 1011.4 |
| 20260505151304 | 52 | 11 | 3.0 | 10.0 | 0.00 | 0.00 | 0.00 | 36 | 1012.2 |
| 20260505150304 | 52 | 347 | 4.0 | 10.0 | 0.00 | 0.00 | 0.00 | 36 | 1012.3 |
| 20260505140304 | 46 | 223 | 2.0 | 10.0 | 0.00 | 0.00 | 0.00 | 44 | 1013.4 |
| 20260505130304 | 44 | 124 | 0.0 | 3.0 | 0.00 | 0.00 | 0.00 | 51 | 1014.0 |
| 20260505124303 | 44 | 305 | 0.0 | 1.0 | 0.00 | 0.00 | 0.00 | 51 | 1013.9 |
| 20260505123304 | 44 | 152 | 1.0 | 4.0 | 0.00 | 0.00 | 0.00 | 51 | 1013.8 |
| 20260505121203 | 44 | 131 | 0.0 | 3.0 | 0.00 | 0.00 | 0.00 | 51 | 1013.6 |
| 20260505120202 | 44 | 56 | 0.0 | 8.0 | 0.00 | 0.00 | 0.00 | 52 | 1013.8 |
| 20260505115203 | 44 | 121 | 0.0 | 3.0 | 0.00 | 0.00 | 0.00 | 52 | 1013.5 |
| 20260505114203 | 44 | 360 | 2.0 | 3.0 | 0.00 | 0.00 | 0.00 | 51 | 1013.4 |
| 20260505113204 | 44 | 120 | 0.0 | 4.0 | 0.00 | 0.00 | 0.00 | 52 | 1013.2 |
| 20260505111104 | 45 | 103 | 0.0 | 9.0 | 0.00 | 0.00 | 0.00 | 50 | 1013.1 |
| 20260505102004 | 45 | 360 | 1.0 | 6.0 | 0.00 | 0.00 | 0.00 | 51 | 1013.8 |
| 20260505101004 | 45 | 58 | 1.0 | 4.0 | 0.00 | 0.00 | 0.00 | 52 | 1013.5 |
| 20260505100003 | 45 | 239 | 0.0 | 9.0 | 0.00 | 0.00 | 0.00 | 51 | 1013.2 |
| 20260505095004 | 46 | 248 | 0.0 | 0.0 | 0.00 | 0.00 | 0.00 | 51 | 1013.4 |
| 20260505094005 | 46 | 253 | 0.0 | 9.0 | 0.00 | 0.00 | 0.00 | 50 | 1013.5 |
| 20260505091903 | 46 | 117 | 0.0 | 2.0 | 0.00 | 0.00 | 0.00 | 49 | 1013.5 |
| 20260505090903 | 47 | 239 | 0.0 | 2.0 | 0.00 | 0.00 | 0.00 | 48 | 1013.5 |
| 20260505085904 | 47 | 117 | 0.0 | 6.0 | 0.00 | 0.00 | 0.00 | 47 | 1013.2 |
| 20260505084903 | 47 | 360 | 3.0 | 8.0 | 0.00 | 0.00 | 0.00 | 47 | 1013.6 |
| 20260505083903 | 47 | 90 | 0.0 | 0.0 | 0.00 | 0.00 | 0.00 | 47 | 1013.8 |
| 20260505082904 | 47 | 323 | 0.0 | 3.0 | 0.00 | 0.00 | 0.00 | 47 | 1014.2 |
| 20260505080804 | 48 | 360 | 4.0 | 9.0 | 0.00 | 0.00 | 0.00 | 47 | 1014.0 |
| 20260505075802 | 48 | 169 | 0.0 | 2.0 | 0.00 | 0.00 | 0.00 | 47 | 1013.9 |
| 20260505074803 | 48 | 185 | 0.0 | 3.0 | 0.00 | 0.00 | 0.00 | 47 | 1014.3 |
| 20260505073804 | 48 | 41 | 0.0 | 1.0 | 0.00 | 0.00 | 0.00 | 48 | 1014.3 |
| 20260505072804 | 49 | 360 | 0.0 | 0.0 | 0.00 | 0.00 | 0.00 | 47 | 1014.2 |
| 20260505071803 | 48 | 360 | 2.0 | 9.0 | 0.00 | 0.00 | 0.00 | 47 | 1014.2 |
| 20260505070803 | 49 | 360 | 0.0 | 0.0 | 0.00 | 0.00 | 0.00 | 47 | 1013.9 |
| 20260505065804 | 49 | 240 | 2.0 | 3.0 | 0.00 | 0.00 | 0.00 | 46 | 1014.2 |
| 20260505064803 | 49 | 360 | 3.0 | 9.0 | 0.00 | 0.00 | 0.00 | 45 | 1014.3 |
| 20260505062703 | 49 | 78 | 1.0 | 8.0 | 0.00 | 0.00 | 0.00 | 45 | 1013.9 |
| 20260505061704 | 49 | 360 | 0.0 | 0.0 | 0.00 | 0.00 | 5.37 | 45 | 1014.2 |
| 20260505060704 | 49 | 83 | 0.0 | 10.0 | 0.00 | 0.00 | 5.37 | 44 | 1014.2 |
| 20260505055703 | 50 | 152 | 1.0 | 9.0 | 0.00 | 0.00 | 5.37 | 44 | 1014.0 |
| 20260505054703 | 50 | 360 | 1.0 | 10.0 | 0.00 | 0.00 | 5.37 | 42 | 1014.2 |
| 20260505053704 | 50 | 281 | 2.0 | 10.0 | 0.00 | 0.00 | 5.37 | 41 | 1014.2 |
| 20260505052702 | 50 | 140 | 3.0 | 5.0 | 0.00 | 0.00 | 5.37 | 41 | 1014.3 |
| 20260505051703 | 51 | 90 | 0.0 | 9.0 | 0.00 | 0.00 | 5.37 | 40 | 1014.3 |
| 20260505050704 | 51 | 114 | 0.0 | 5.0 | 0.00 | 0.00 | 5.37 | 39 | 1014.2 |
| 20260505041604 | 52 | 360 | 0.0 | 8.0 | 0.00 | 0.00 | 5.37 | 36 | 1014.7 |
| 20260505040604 | 53 | 48 | 2.0 | 9.0 | 0.00 | 0.00 | 5.37 | 35 | 1014.7 |
| 20260505034503 | 54 | 73 | 3.0 | 9.0 | 0.00 | 0.00 | 5.37 | 29 | 1014.6 |
| 20260505033503 | 54 | 229 | 4.0 | 10.0 | 0.00 | 0.00 | 5.37 | 28 | 1014.4 |
| 20260505032504 | 54 | 360 | 0.0 | 9.0 | 0.00 | 0.00 | 5.37 | 28 | 1014.4 |
| 20260505031502 | 54 | 223 | 4.0 | 9.0 | 0.00 | 0.00 | 5.37 | 30 | 1014.3 |
| 20260505030503 | 54 | 198 | 6.0 | 8.0 | 0.00 | 0.00 | 5.37 | 30 | 1014.3 |
| 20260505024403 | 54 | 202 | 0.0 | 9.0 | 0.00 | 0.00 | 5.37 | 32 | 1014.0 |
| 20260505023404 | 55 | 360 | 0.0 | 10.0 | 0.00 | 0.00 | 5.37 | 34 | 1014.0 |
| 20260505022403 | 56 | 264 | 1.0 | 9.0 | 0.00 | 0.00 | 5.37 | 31 | 1014.0 |
| 20260505021403 | 56 | 152 | 0.0 | 9.0 | 0.00 | 0.00 | 5.37 | 28 | 1013.9 |
| 20260505020404 | 57 | 189 | 3.0 | 9.0 | 0.00 | 0.00 | 5.37 | 26 | 1014.0 |
| 20260505015403 | 57 | 116 | 3.0 | 10.0 | 0.00 | 0.00 | 5.37 | 26 | 1013.9 |
| 20260505014403 | 58 | 200 | 4.0 | 10.0 | 0.00 | 0.00 | 5.37 | 26 | 1013.9 |
| 20260505013404 | 58 | 256 | 5.0 | 10.0 | 0.00 | 0.00 | 5.37 | 26 | 1013.8 |
| 20260505012402 | 59 | 202 | 1.0 | 5.0 | 0.00 | 0.00 | 5.37 | 25 | 1013.6 |
| 20260505011403 | 59 | 246 | 3.0 | 5.0 | 0.00 | 0.00 | 5.37 | 26 | 1013.5 |
| 20260505005304 | 60 | 360 | 0.0 | 9.0 | 0.00 | 0.00 | 5.37 | 25 | 1013.2 |